Weather History for KDMA - February, 2013

Change the Weather History Date:

Wednesday, February 27, 2013

  Actual Average Record
Temperature  
Mean Temperature 48 °F -  
Max Temperature 61 °F 71 °F 88 °F (1986)
Min Temperature 36 °F 42 °F 28 °F (1977)
Degree Days  
Heating Degree Days 16    
Moisture  
Dew Point 13 °F    
Average Humidity 28    
Maximum Humidity 52    
Minimum Humidity 10    
Precipitation  
Precipitation 0.00 in - - ()
Sea Level Pressure  
Sea Level Pressure 30.12 in    
Wind  
Wind Speed 6 mph (NNW)    
Max Wind Speed 15 mph    
Max Gust Speed 17 mph    
Visibility 10 miles    
Events      
Averages and records for this station are not official NWS values.
T = Trace of Precipitation, MM = Missing Value Source: NWS Daily Summary

Daily Weather History Graph

Daily Weather History Graph

Search for Another Location

Airport or City:

Trip Planner

Search our weather history database for the weather conditions in past years. The results will help you decide how hot, cold, wet, or windy it might be!

Date:

Astronomy

Feb. 27, 2013 Rise Set
Actual Time 6:52 AM MST 6:19 PM MST
Civil Twilight 6:28 AM MST 6:44 PM MST
Nautical Twilight 5:59 AM MST 7:12 PM MST
Astronomical Twilight 5:31 AM MST 7:41 PM MST
Moon 8:32 PM MST (2/27) 7:40 AM MST (2/27)
Length of Visible Light 12h 16m
Length of Day
11h 27m
Waning Gibbous, 96% of the Moon is Illuminated
Feb 27
Waning Gibbous
Mar 4
Last Quarter
Mar 11
New
Mar 19
First Quarter
Mar 27
Full

Hourly Weather History & Observations

Time (MST) Temp. Windchill Dew Point Humidity Pressure Visibility Wind Dir Wind Speed Gust Speed Precip Events Conditions
12:58 AM 39.6 °F 34.0 °F 21.9 °F 49% 30.06 in 10.0 mi SE 8.1 mph - N/A   Clear
1:58 AM 37.2 °F 34.7 °F 21.0 °F 52% 30.07 in 10.0 mi SSW 3.5 mph - N/A   Clear
2:58 AM 37.9 °F - 21.4 °F 51% 30.08 in 10.0 mi Calm Calm - N/A   Clear
3:58 AM 38.8 °F 33.8 °F 19.8 °F 46% 30.07 in 10.0 mi ESE 6.9 mph - N/A   Clear
4:58 AM 38.3 °F - 19.2 °F 46% 30.08 in 10.0 mi NNE 1.2 mph - N/A   Clear
5:58 AM 36.1 °F 31.4 °F 19.2 °F 50% 30.11 in 10.0 mi East 5.8 mph - N/A   Clear
6:58 AM 38.7 °F 32.9 °F 13.6 °F 36% 30.12 in 10.0 mi ESE 8.1 mph - N/A   Clear
7:58 AM 40.8 °F 37.8 °F 14.5 °F 34% 30.15 in 10.0 mi ESE 4.6 mph - N/A   Clear
8:58 AM 46.2 °F 44.1 °F 12.9 °F 26% 30.16 in 10.0 mi East 4.6 mph - N/A   Clear
9:58 AM 48.2 °F - 9.7 °F 21% 30.17 in 10.0 mi North 4.6 mph - N/A   Clear
10:58 AM 50.5 °F - 11.5 °F 21% 30.17 in 10.0 mi NNE 1.2 mph - N/A   Clear
11:58 AM 54.3 °F - 11.1 °F 18% 30.15 in 10.0 mi Variable 2.3 mph - N/A   Clear
12:58 PM 57.6 °F - 7.7 °F 14% 30.13 in 10.0 mi West 4.6 mph - N/A   Clear
1:58 PM 59.5 °F - 7.2 °F 12% 30.10 in 10.0 mi NW 9.2 mph 17.3 mph N/A   Clear
2:58 PM 59.9 °F - 5.4 °F 11% 30.08 in 10.0 mi WNW 6.9 mph - N/A   Clear
3:58 PM 61.3 °F - 7.7 °F 12% 30.07 in 10.0 mi WNW 11.5 mph - N/A   Clear
4:58 PM 60.8 °F - 3.9 °F 10% 30.07 in 10.0 mi WNW 11.5 mph - N/A   Clear
5:58 PM 57.7 °F - 3.6 °F 11% 30.10 in 10.0 mi NW 15.0 mph - N/A   Clear
6:58 PM 54.9 °F - 6.3 °F 14% 30.10 in 10.0 mi NW 12.7 mph - N/A   Clear
7:58 PM 52.3 °F - 9.0 °F 18% 30.12 in 10.0 mi NW 11.5 mph - N/A   Clear
8:58 PM 50.4 °F - 9.9 °F 20% 30.13 in 10.0 mi NW 6.9 mph - N/A   Clear
9:58 PM 46.8 °F - 11.5 °F 24% 30.15 in 10.0 mi NNW 5.8 mph - N/A   Clear
10:58 PM 41.2 °F 38.2 °F 16.0 °F 36% 30.18 in 10.0 mi SSW 4.6 mph - N/A   Clear
11:58 PM 39.0 °F 36.8 °F 16.7 °F 40% 30.19 in 10.0 mi SSE 3.5 mph - N/A   Clear